Вернуться в каталог

CZ-6A DEB

АктивенSSO
NORAD 54621·DEBRIS·🇨🇳 China

Запущен Nov 11, 2022 с Taiyuan Satellite Launch Center

Loading…

Ближайшие Пролёты (ближайшие 24 часа)

TLE

СвежийSource: Space-Track

Эпоха: Sep 13, 2026, 22:02 UTC

1 54621U 22151NX  26256.91870464  .00000592  00000-0  36015-3 0  9993
2 54621  98.8540 248.9918 0060198  91.2244 269.5824 14.09092611195959

Отслеживайте CZ-6A DEB в реальном времени с AllMySat

Download on the App Store